Regional Weather Roundup
Issued by NWS Cleveland, OH

Home | Current Version | Previous Version | Text Only | Print | Product List | Glossary On
Versions: 1 2 3 4 5 6 7 8 9 10 11 12 13 14 15 16 17 18 19 20 21 22 23 24 25 26 27 28 29 30 31 32 33 34 35 36 37 38 39 40 41 42 43 44 45 46 47 48 49 50
000
ASUS41 KCLE 250112
RWRCLE
OHIO REGIONAL WEATHER ROUNDUP
NATIONAL WEATHER SERVICE WILMINGTON, OH
900 PM EDT SAT JUN 24 2017

NOTE: "FAIR" INDICATES FEW OR NO CLOUDS BELOW 12,000 FEET WITH NO
SIGNIFICANT WEATHER AND/OR OBSTRUCTIONS TO VISIBILITY.

OHZ001>008-015>018-024>027-034-035-043-044-250200-
   NORTHWEST OHIO

CITY           SKY/WX    TMP DP  RH WIND       PRES   REMARKS
DEFIANCE       FAIR      67  51  56 NW6       29.99R
FINDLAY        MOCLDY    71  53  52 W8        29.98R
TOLEDO EXPRESS FAIR      70  50  49 NW9       29.97R
TOLEDO EXEC    FAIR      70  50  49 W12       29.97R
LIMA           FAIR      69  54  58 W13       30.01R
$$

OHZ009>014-019>023-028>033-038-089-250200-
   NORTHEAST OHIO

CITY           SKY/WX    TMP DP  RH WIND       PRES   REMARKS
CLE-HOPKINS    FAIR      74  54  49 W13       29.97R
CLE-LAKEFRONT  MOCLDY    72  62  71 W18G25    29.94R
CUY CO. ARPT   PTCLDY    73  57  56 W14       29.95R
LORAIN-ELYRIA  FAIR      70  52  52 NW7       29.97R
ASHTABULA      FAIR      69  56  62 W7        29.95R
AKRON-CANTON   FAIR      72  52  49 W8        29.97R
WOOSTER        FAIR      71  54  54 W8        29.98R
MANSFIELD      FAIR      69  54  58 W5        29.99R
YOUNGSTOWN     CLOUDY    72  52  49 W7        29.95R THUNDER
$$

OHZ042-051>053-060>062-070>072-077>081-250200-
  SOUTHWEST OHIO

CITY           SKY/WX    TMP DP  RH WIND       PRES   REMARKS
CINC-COVINGTON MOCLDY    71  57  61 W6        30.05R
CINC-LUNKEN    FAIR      73  56  54 W8        30.04R
HAMILTON       FAIR      74  56  53 W8        30.04R
DAYTON         FAIR      70  52  52 W10       30.04R
WRIGHT-PAT AFB PTCLDY    73  52  48 W9        30.02R
DAYTON GENERAL FAIR      72  54  53 W8        30.03R
WILMINGTON     FAIR      71  57  61 W10       30.03R
$$

OHZ036-037-039>041-045>050-054>059-063>069-073>076-082>088-250200-
  CENTRAL AND SOUTHEAST OHIO

CITY           SKY/WX    TMP DP  RH WIND       PRES   REMARKS
COLUMBUS       MOCLDY    73  56  54 W14       29.99R
OSU AIRPORT    FAIR      71  55  56 W14G21    30.00R
BOLTON FIELD   NOT AVBL
RICKENBACK AFB FAIR      73  57  59 NW5       29.99R
NEWARK         FAIR      72  54  53 W8        29.98R
MARION         FAIR      71  53  52 W8        30.00R
LANCASTER      FAIR      70  59  68 CALM      30.00R
ZANESVILLE     FAIR      73  57  57 SW3       29.98R
NEW PHILLY     FAIR      73  56  54 W5        29.98R
$$




USA.gov is the U.S. government's official web portal to all federal, state and local government web resources and services.